When you browse on this site, cookies collect data to enhance your experience and personalize the content and advertising you see.
Visit our Privacy Policy to learn more. By continuing to use the site, you agree to this use of cookies and data.
  • In Czech Republic
  • List of Countries
  • For 7 days
  • Water Temperature
  • Satellite Maps
  • Weather Map
  • Weather Widgets
  • user-avatar
    Login

    Hourly Weather Konstantyna

    Today, 18 December, Tuesday

    Time Temperature Precipitation Wind Pressure Humidity
    00:00 +6°C° 0 mm 2 mps 717 mmHg 85%
    01:00 +6°C° 0 mm 2 mps 717 mmHg 85%
    02:00 +7°C° 0 mm 1 mps 717 mmHg 84%
    03:00 +6°C° 0 mm 1 mps 717 mmHg 84%
    04:00 +6°C° 0 mm 1 mps 717 mmHg 84%
    05:00 +6°C° 0 mm 1 mps 717 mmHg 83%
    06:00 +6°C° 0 mm 1 mps 717 mmHg 82%
    07:00 +7°C° 0 mm 1 mps 717 mmHg 73%
    08:00 +9°C° 0 mm 1 mps 717 mmHg 65%
    09:00 +10°C° 0 mm 2 mps 717 mmHg 57%
    10:00 +12°C° 0 mm 2 mps 717 mmHg 48%
    11:00 +14°C° 0 mm 2 mps 717 mmHg 40%
    12:00 +15°C° 0 mm 2 mps 717 mmHg 31%
    13:00 +16°C° 0 mm 2 mps 717 mmHg 32%
    14:00 +16°C° 0 mm 2 mps 716 mmHg 32%
    15:00 +16°C° 0 mm 1 mps 716 mmHg 33%
    16:00 +14°C° 0 mm 2 mps 716 mmHg 36%
    17:00 +13°C° 0 mm 2 mps 715 mmHg 38%
    18:00 +10°C° 0 mm 2 mps 715 mmHg 41%
    19:00 +9°C° 0 mm 2 mps 715 mmHg 42%
    20:00 +9°C° 0 mm 2 mps 715 mmHg 42%
    21:00 +8°C° 0 mm 2 mps 715 mmHg 43%
    22:00 +8°C° 0 mm 2 mps 715 mmHg 44%
    23:00 +8°C° 0 mm 2 mps 715 mmHg 46%

    Tomorrow, 19 December, Wednesday

    Time Temperature Precipitation Wind Pressure Humidity
    00:00 +8°C° 0 mm 2 mps 715 mmHg 47%
    01:00 +7°C° 0 mm 2 mps 714 mmHg 49%
    02:00 +7°C° 0 mm 2 mps 714 mmHg 51%
    03:00 +7°C° 0 mm 2 mps 714 mmHg 53%
    04:00 +7°C° 0 mm 2 mps 714 mmHg 55%
    05:00 +7°C° 0 mm 2 mps 714 mmHg 57%
    06:00 +7°C° 0 mm 2 mps 714 mmHg 60%
    07:00 +8°C° 0 mm 2 mps 714 mmHg 57%
    08:00 +10°C° 0 mm 2 mps 715 mmHg 55%
    09:00 +13°C° 0 mm 2 mps 715 mmHg 53%
    10:00 +14°C° 0 mm 2 mps 715 mmHg 48%
    11:00 +16°C° 0 mm 2 mps 715 mmHg 44%
    12:00 +18°C° 0 mm 2 mps 715 mmHg 39%
    13:00 +18°C° 0 mm 2 mps 715 mmHg 41%
    14:00 +18°C° 0 mm 2 mps 715 mmHg 44%
    15:00 +19°C° 0 mm 1 mps 714 mmHg 46%
    16:00 +16°C° 0 mm 1 mps 714 mmHg 50%
    17:00 +14°C° 0 mm 1 mps 714 mmHg 54%
    18:00 +11°C° 0 mm 0 mps 714 mmHg 58%
    19:00 +12°C° 0 mm 1 mps 714 mmHg 60%
    20:00 +11°C° 0 mm 1 mps 714 mmHg 61%
    21:00 +11°C° 0 mm 1 mps 714 mmHg 63%
    22:00 +11°C° 0 mm 1 mps 714 mmHg 64%
    23:00 +10°C° 0 mm 1 mps 714 mmHg 65%

    Day after tomorrow, 20 December, Thursday

    Time Temperature Precipitation Wind Pressure Humidity
    00:00 +10°C° 0 mm 1 mps 714 mmHg 66%
    01:00 +10°C° 0 mm 1 mps 714 mmHg 67%
    02:00 +9°C° 0 mm 1 mps 714 mmHg 68%
    03:00 +9°C° 0 mm 1 mps 714 mmHg 69%
    04:00 +9°C° 0 mm 1 mps 714 mmHg 69%
    05:00 +9°C° 0 mm 1 mps 714 mmHg 70%
    06:00 +9°C° 0 mm 1 mps 714 mmHg 70%
    07:00 +10°C° 0 mm 1 mps 715 mmHg 66%
    08:00 +12°C° 0 mm 1 mps 716 mmHg 62%
    09:00 +12°C° 0 mm 0 mps 716 mmHg 57%
    10:00 +14°C° 0 mm 1 mps 716 mmHg 57%
    11:00 +15°C° 0 mm 1 mps 716 mmHg 56%
    12:00 +15°C° 0 mm 1 mps 716 mmHg 55%
    13:00 +15°C° 0.1 mm 2 mps 716 mmHg 58%
    14:00 +15°C° 0.1 mm 2 mps 716 mmHg 62%
    15:00 +15°C° 0.1 mm 2 mps 715 mmHg 65%
    16:00 +14°C° 0.1 mm 2 mps 716 mmHg 72%
    17:00 +13°C° 0.1 mm 2 mps 716 mmHg 79%
    18:00 +12°C° 0.1 mm 1 mps 716 mmHg 86%
    19:00 +11°C° 0.1 mm 1 mps 717 mmHg 87%
    20:00 +11°C° 0.1 mm 1 mps 717 mmHg 89%
    21:00 +11°C° 0.1 mm 1 mps 717 mmHg 91%
    22:00 +10°C° 0.1 mm 1 mps 718 mmHg 92%
    23:00 +10°C° 0.1 mm 1 mps 718 mmHg 93%

    21 December, Friday

    Time Temperature Precipitation Wind Pressure Humidity
    00:00 +10°C° 0.1 mm 1 mps 718 mmHg 94%
    01:00 +9°C° 0 mm 1 mps 718 mmHg 94%
    02:00 +8°C° 0 mm 0 mps 718 mmHg 94%
    03:00 +7°C° 0 mm 0 mps 718 mmHg 94%
    04:00 +7°C° 0 mm 0 mps 718 mmHg 94%
    05:00 +7°C° 0 mm 0 mps 718 mmHg 94%
    06:00 +7°C° 0 mm 0 mps 719 mmHg 93%
    07:00 +8°C° 0 mm 0 mps 719 mmHg 88%
    08:00 +9°C° 0 mm 0 mps 720 mmHg 83%
    09:00 +10°C° 0 mm 0 mps 720 mmHg 78%
    10:00 +11°C° 0 mm 0 mps 720 mmHg 71%
    11:00 +13°C° 0 mm 1 mps 720 mmHg 64%
    12:00 +14°C° 0 mm 1 mps 720 mmHg 57%
    13:00 +14°C° 0 mm 1 mps 720 mmHg 56%
    14:00 +14°C° 0 mm 1 mps 720 mmHg 56%
    15:00 +14°C° 0 mm 1 mps 720 mmHg 55%
    16:00 +13°C° 0 mm 1 mps 720 mmHg 62%
    17:00 +11°C° 0 mm 1 mps 720 mmHg 69%
    18:00 +10°C° 0 mm 1 mps 720 mmHg 76%
    19:00 +9°C° 0 mm 1 mps 720 mmHg 78%
    20:00 +9°C° 0 mm 1 mps 720 mmHg 81%
    21:00 +9°C° 0 mm 1 mps 720 mmHg 83%
    22:00 +8°C° 0 mm 1 mps 720 mmHg 82%
    23:00 +8°C° 0 mm 1 mps 720 mmHg 81%

    22 December, Saturday

    Time Temperature Precipitation Wind Pressure Humidity
    00:00 +8°C° 0 mm 1 mps 720 mmHg 80%
    01:00 +8°C° 0 mm 1 mps 719 mmHg 80%
    02:00 +8°C° 0 mm 1 mps 719 mmHg 79%
    03:00 +8°C° 0 mm 1 mps 719 mmHg 78%
    04:00 +8°C° 0 mm 1 mps 719 mmHg 78%
    05:00 +7°C° 0 mm 1 mps 719 mmHg 77%
    06:00 +7°C° 0 mm 1 mps 719 mmHg 76%
    07:00 +8°C° 0 mm 2 mps 720 mmHg 70%
    08:00 +10°C° 0 mm 2 mps 720 mmHg 64%
    09:00 +12°C° 0 mm 2 mps 720 mmHg 57%
    10:00 +13°C° 0 mm 2 mps 720 mmHg 51%
    11:00 +15°C° 0 mm 2 mps 720 mmHg 45%
    12:00 +16°C° 0 mm 2 mps 720 mmHg 39%
    13:00 +16°C° 0 mm 2 mps 720 mmHg 39%
    14:00 +16°C° 0 mm 2 mps 719 mmHg 40%
    15:00 +16°C° 0 mm 2 mps 719 mmHg 41%
    16:00 +14°C° 0 mm 1 mps 719 mmHg 47%
    17:00 +13°C° 0 mm 1 mps 719 mmHg 54%
    18:00 +11°C° 0 mm 1 mps 719 mmHg 61%
    19:00 +10°C° 0 mm 1 mps 719 mmHg 61%
    20:00 +10°C° 0 mm 1 mps 719 mmHg 61%
    21:00 +10°C° 0 mm 1 mps 719 mmHg 62%
    22:00 +10°C° 0 mm 1 mps 719 mmHg 62%
    23:00 +9°C° 0 mm 1 mps 718 mmHg 61%

    23 December, Sunday

    Time Temperature Precipitation Wind Pressure Humidity
    00:00 +9°C° 0 mm 1 mps 718 mmHg 61%
    01:00 +9°C° 0 mm 1 mps 718 mmHg 61%
    02:00 +9°C° 0 mm 1 mps 718 mmHg 61%
    03:00 +7°C° 0 mm 2 mps 718 mmHg 61%
    04:00 +7°C° 0 mm 2 mps 718 mmHg 61%
    05:00 +7°C° 0 mm 2 mps 718 mmHg 61%
    06:00 +7°C° 0 mm 2 mps 718 mmHg 61%
    07:00 +10°C° 0 mm 1 mps 718 mmHg 56%
    08:00 +12°C° 0 mm 1 mps 719 mmHg 51%
    09:00 +13°C° 0 mm 1 mps 719 mmHg 46%
    10:00 +15°C° 0 mm 1 mps 719 mmHg 41%
    11:00 +16°C° 0 mm 1 mps 719 mmHg 36%
    12:00 +19°C° 0 mm 1 mps 719 mmHg 31%
    13:00 +19°C° 0 mm 1 mps 718 mmHg 32%
    14:00 +19°C° 0 mm 1 mps 718 mmHg 33%
    15:00 +19°C° 0 mm 1 mps 718 mmHg 35%
    16:00 +16°C° 0 mm 1 mps 718 mmHg 40%
    17:00 +13°C° 0 mm 0 mps 718 mmHg 45%
    18:00 +11°C° 0 mm 0 mps 717 mmHg 50%
    19:00 +11°C° 0 mm 1 mps 717 mmHg 49%
    20:00 +11°C° 0 mm 1 mps 718 mmHg 49%
    21:00 +11°C° 0 mm 1 mps 718 mmHg 48%
    22:00 +11°C° 0 mm 1 mps 717 mmHg 47%
    23:00 +10°C° 0 mm 1 mps 717 mmHg 46%
    Show more